Regional Weather Roundup
Issued by NWS

Home | Current Version | Previous Version | Graphics & Text | Print | Product List | Glossary On
Versions: 1 2 3 4 5 6 7 8 9 10 11 12 13 14 15 16 17 18 19 20 21 22 23 24 25 26 27 28 29 30 31 32 33 34 35 36 37 38 39 40 41 42 43 44 45 46 47 48 49 50
000
ASUS43 KDTX 282210
RWRMI
MICHIGAN HOURLY REGIONAL WEATHER ROUNDUP
NATIONAL WEATHER SERVICE DETROIT/PONTIAC MI
600 PM EDT THU MAY 28 2020

NOTE: "FAIR" INDICATES FEW OR NO CLOUDS BELOW 12,000 FEET WITH NO
SIGNIFICANT WEATHER AND/OR OBSTRUCTION TO VISIBILITY.

MIZ047>049-052>055-059>063-066>070-074>076-081>083-282300-
SOUTHEAST LOWER MICHIGAN

CITY           SKY/WX    TMP DP  RH WIND       PRES   REMARKS
ALMA           CLOUDY    74  67  77 W3        29.80F
ANN ARBOR      PTSUNNY   75  66  73 S10       29.82F
BAD AXE        CLOUDY    76  63  63 S10G21    29.80F
CARO           PTSUNNY   77  65  65 SW10      29.80F
DETROIT CITY   PTSUNNY   77  66  68 S9G17     29.83F
DETROIT        LGT RAIN  74  67  78 S10       29.83F
FLINT          PTSUNNY   78  64  61 SW7       29.81F
GROSSE ILE     PTSUNNY   74  67  79 SE8       29.83F
HILLSDALE      CLOUDY    71  66  85 W12       29.85S
HOWELL         CLOUDY    73  67  82 SE6       29.82F

CITY           SKY/WX    TMP DP  RH WIND       PRES   REMARKS
JACKSON        CLOUDY    69  66  90 SW9G21    29.83R
LAMBERTVILLE   CLOUDY    73  69  88 SW9G16    29.85S
LANSING        PTSUNNY   74  65  73 SW6       29.80F
LAPEER         CLOUDY    76  66  72 S7        29.83S
MASON          CLOUDY    74  68  82 S5        29.81F
MONROE         LGT RAIN  71  68  90 SW9G17    29.83S
MT. CLEMENS    PTSUNNY   74  71  91 SE12      29.82F
PONTIAC        CLOUDY    76  64  66 S12       29.82S
PORT HOPE        N/A     73  60  63 S8        29.78F
PORT HURON     CLOUDY    75  63  64 S13G20    29.84S
TRI CITIES     PTSUNNY   77  68  73 SW10      29.80F
MIDLAND        PTSUNNY   77  66  68 S8        29.78F
TROY           CLOUDY    78  67  69 S6        29.84F
SAGINAW HB     PTSUNNY   77  64  65 S13       29.80S
$$
MIZ043>046-050>051-056>058-064>065-071>073-077>080-282300-
SOUTHWEST LOWER MICHIGAN

CITY           SKY/WX    TMP DP  RH WIND       PRES   REMARKS
BATTLE CREEK   CLOUDY    73  68  84 W7        29.83S
BENTON HARBOR  PTSUNNY   79  66  64 SW10      29.80F
BIG RAPIDS     CLOUDY    72  67  86 S10       29.78F
COLDWATER      CLOUDY    73  64  73 SW12      29.85R
FREMONT        CLOUDY    74  65  73 SW9       29.78F
HOLLAND        CLOUDY    75  64  68 SW13      29.80F
GRAND RAPIDS   PTSUNNY   74  68  81 W9        29.80F
IONIA          LGT RAIN  72  67  83 SW7       29.80S
KALAMAZOO      CLOUDY    74  62  66 W8        29.83R
LUDINGTON      LGT RAIN  62  62  97 SW10      29.79R
MARSHALL       CLOUDY    71  68  90 SW6       29.83S
MOUNT PLEASANT CLOUDY    72  70  95 SW6       29.79F
MUSKEGON       CLOUDY    73  65  75 SW14      29.79F
SOUTH HAVEN    MOSUNNY   78  65  64 SW14G20   29.80F
$$
MIZ016>042-282300-
NORTHERN LOWER MICHIGAN

CITY           SKY/WX    TMP DP  RH WIND       PRES   REMARKS
ALPENA         LGT RAIN  74  68  81 S8        29.75F
BEAVER ISLAND  RAIN      61  61 100 W5        29.76S
BELLAIRE       CLOUDY    67  64  90 CALM      29.75S
CADILLAC       LGT RAIN  69  62  79 SW9       29.77F
CHARLEVOIX     CLOUDY    58  57  97 W8        29.76F FOG
FRANKFORT      HVY RAIN  57  56  97 CALM      29.79F
GAYLORD        LGT RAIN  68  67  96 W9        29.77F
GRAYLING       LGT RAIN  69  68  96 S7        29.76S
HARBOR SPRINGS FOG       56  56  99 SW5       29.76S VSB 1/4
MANISTEE       LGT RAIN  60  60 100 W10       29.79R
OSCODA         PTSUNNY   75  63  65 S15G22    29.77F
PELLSTON       CLOUDY    67  65  93 W9        29.75S
ROGERS CITY    LGT RAIN  66  64  92 SE3       29.75F
TRAVERSE CITY  CLOUDY    71  65  81 W23G32    29.73S
$$
MIZ007>008-015-282300-
EASTERN UPPER MICHIGAN

CITY           SKY/WX    TMP DP  RH WIND       PRES   REMARKS
MACKINAC ISLAN HVY RAIN  61  61 100 SW3       29.74R VSB 3/4
NEWBERRY       LGT RAIN N/A N/A N/A N5        29.75F
S. S. MARIE    HVY RAIN  66  65  96 W7        29.73R VSB 1/2
MUNISING         N/A     54  54 100 NE5       29.78S
$$
MIZ004>006-011>014-085-282300-
CENTRAL UPPER MICHIGAN

CITY           SKY/WX    TMP DP  RH WIND       PRES   REMARKS
MANISTIQUE     RAIN      64  64 100 SW3       29.76R
ESCANABA       LGT RAIN  64  63  94 N6        29.76F
MENOMINEE      CLOUDY    63  63 100 W3        29.82R
SAWYER-GWINN   CLOUDY    61  59  94 N8        29.79F FOG
$$
MIZ001>003-009>011-084-282300-
WESTERN UPPER MICHIGAN

CITY           SKY/WX    TMP DP  RH WIND       PRES   REMARKS
IRON MOUNTAIN  CLOUDY    64  56  75 NW8       29.79F
HOUGHTON       CLOUDY    63  48  58 CALM      29.81F
COPPER HARBOR    N/A     58  49  72 CALM      29.79F
IRONWOOD       MOSUNNY   73  39  29 N12       29.83F
$$

ABBREVIATIONS USED IN REMARKS
   TC - TEMPERATURE IN CELSIUS
  WCI - WIND CHILL INDEX
   HX - HEAT INDEX
  VSB - VISIBILITY





USA.gov is the U.S. government's official web portal to all federal, state and local government web resources and services.